This demonstration page uses our WeatherBlox Daily Observations layout. Learn more.

Left ArrowRight Arrow

Hourly Observations for March 26, 2022

Temp ( °F °C ) Dew Point ( °F °C ) Humidity (%) Winds ( mph kmh ) Pressure ( in mb ) Visibility ( mi km ) Precip ( " mm )
12:15 am 00:15 Clear 34 1 23 -5 65 65 W 7 11 30.25 1024 10 16 0.00 0.00
12:35 am 00:35 Clear 36 2 23 -5 60 60 W 7 11 30.23 1024 10 16 0.00 0.00
12:55 am 00:55 Clear 34 1 23 -5 65 65 W 6 9 30.24 1024 10 16 0.00 0.00
1:15 am 01:15 Clear 34 1 23 -5 65 65 NE 3 6 30.24 1024 10 16 0.00 0.00
1:35 am 01:35 Clear 34 1 23 -5 65 65 Calm 30.24 1024 10 16 0.00 0.00
1:55 am 01:55 Clear 34 1 23 -5 65 65 Calm 30.24 1024 10 16 0.00 0.00
2:15 am 02:15 Clear 36 2 23 -5 60 60 Calm 30.22 1023 10 16 0.00 0.00
2:35 am 02:35 Clear 34 1 23 -5 65 65 Calm 30.24 1024 10 16 0.00 0.00
2:55 am 02:55 Clear 37 3 23 -5 56 56 Calm 30.21 1023 10 16 0.00 0.00
3:15 am 03:15 Clear 34 1 27 -3 75 75 ENE 3 6 30.23 1024 10 16 0.00 0.00
3:35 am 03:35 Partly Cloudy 34 1 23 -5 65 65 Calm 30.22 1023 10 16 0.00 0.00
3:55 am 03:55 Partly Cloudy 34 1 27 -3 75 75 Calm 30.21 1023 10 16 0.00 0.00
4:15 am 04:15 Partly Cloudy 34 1 27 -3 75 75 WSW 3 6 30.21 1023 10 16 0.00 0.00
4:35 am 04:35 Mostly Cloudy 34 1 27 -3 75 75 Calm 30.21 1023 10 16 0.00 0.00
4:55 am 04:55 Partly Cloudy 34 1 27 -3 75 75 Calm 30.21 1023 10 16 0.00 0.00
5:15 am 05:15 Mostly Cloudy 34 1 27 -3 75 75 ESE 3 6 30.20 1023 10 16 0.00 0.00
5:35 am 05:35 Mostly Cloudy 36 2 27 -3 70 70 Calm 30.20 1023 10 16 0.00 0.00
5:55 am 05:55 Mostly Cloudy 36 2 27 -3 70 70 ESE 3 6 30.20 1023 10 16 0.00 0.00
6:15 am 06:15 Partly Cloudy 36 2 25 -4 65 65 ENE 5 7 30.21 1023 10 16 0.00 0.00
6:35 am 06:35 Clear 36 2 25 -4 65 65 E 3 6 30.21 1023 10 16 0.00 0.00
6:55 am 06:55 Clear 34 1 21 -6 60 60 E 5 7 30.22 1023 10 16 0.00 0.00
7:15 am 07:15 Clear 34 1 23 -5 65 65 E 6 9 30.23 1024 10 16 0.00 0.00
7:35 am 07:35 Sunny 34 1 23 -5 65 65 E 7 11 30.23 1024 10 16 0.00 0.00
7:55 am 07:55 Sunny 34 1 23 -5 65 65 E 7 11 30.24 1024 10 16 0.00 0.00
8:15 am 08:15 Sunny 34 1 23 -5 65 65 E 7 11 30.24 1024 10 16 0.00 0.00
8:35 am 08:35 Sunny 36 2 23 -5 60 60 E 9 15 30.23 1024 10 16 0.00 0.00
8:55 am 08:55 Sunny 36 2 23 -5 60 60 E 10 17 30.24 1024 10 16 0.00 0.00
9:15 am 09:15 Sunny 37 3 23 -5 56 56 E 12 19 30.23 1024 10 16 0.00 0.00
9:35 am 09:35 Sunny 39 4 21 -6 48 48 ESE 9 15 30.21 1023 10 16 0.00 0.00
9:55 am 09:55 Sunny 43 6 18 -8 36 36 ESE 14 22 30.19 1022 10 16 0.00 0.00
10:15 am 10:15 Sunny 45 7 19 -7 37 37 ESE 16 26 30.18 1022 10 16 0.00 0.00
10:35 am 10:35 Sunny 45 7 19 -7 37 37 SE 17 28 30.18 1022 10 16 0.00 0.00
10:55 am 10:55 Sunny 46 8 21 -6 37 37 ESE 15 24 30.18 1022 10 16 0.00 0.00
11:15 am 11:15 Sunny 48 9 21 -6 34 34 SE 16 26 30.16 1021 10 16 0.00 0.00
11:35 am 11:35 Sunny 48 9 21 -6 34 34 SE 17 28 30.16 1021 10 16 0.00 0.00
11:55 am 11:55 Sunny 50 10 23 -5 35 35 SE 17 28 30.14 1021 10 16 0.00 0.00
12:15 pm 12:15 Sunny 52 11 23 -5 32 32 ESE 14 22 30.12 1020 10 16 0.00 0.00
12:35 pm 12:35 Sunny 52 11 25 -4 35 35 ESE 16 26 30.12 1020 10 16 0.00 0.00
12:55 pm 12:55 Sunny 54 12 25 -4 33 33 SE 13 20 30.11 1020 10 16 0.00 0.00
1:15 pm 13:15 Sunny 54 12 25 -4 33 33 SE 14 22 30.10 1019 10 16 0.00 0.00
1:35 pm 13:35 Sunny 55 13 27 -3 33 33 ESE 12 19 30.09 1019 10 16 0.00 0.00
1:55 pm 13:55 Sunny 55 13 27 -3 33 33 SE 13 20 30.09 1019 10 16 0.00 0.00
2:15 pm 14:15 Sunny 55 13 27 -3 33 33 ESE 14 22 30.08 1019 10 16 0.00 0.00
2:35 pm 14:35 Sunny 55 13 27 -3 33 33 SE 20 31 30.07 1018 10 16 0.00 0.00
2:55 pm 14:55 Sunny 59 15 28 -2 31 31 ESE 13 20 30.04 1017 10 16 0.00 0.00
3:15 pm 15:15 Sunny 59 15 27 -3 29 29 ESE 13 20 30.04 1017 10 16 0.00 0.00
3:35 pm 15:35 Sunny 59 15 28 -2 31 31 SE 12 19 30.03 1017 10 16 0.00 0.00
3:55 pm 15:55 Sunny 59 15 28 -2 31 31 SE 13 20 30.02 1016 10 16 0.00 0.00
4:15 pm 16:15 Sunny 59 15 28 -2 31 31 ESE 15 24 30.02 1016 10 16 0.00 0.00
4:35 pm 16:35 Sunny 59 15 28 -2 31 31 ESE 15 24 30.01 1016 10 16 0.00 0.00
4:55 pm 16:55 Sunny 59 15 28 -2 31 31 SE 16 26 30.01 1016 10 16 0.00 0.00
5:15 pm 17:15 Sunny 57 14 27 -3 31 31 ESE 15 24 30.02 1016 10 16 0.00 0.00
5:35 pm 17:35 Sunny 55 13 27 -3 33 33 ESE 15 24 30.02 1017 10 16 0.00 0.00
5:55 pm 17:55 Sunny 55 13 27 -3 33 33 ESE 16 26 30.01 1016 10 16 0.00 0.00
6:15 pm 18:15 Sunny 55 13 27 -3 33 33 ESE 16 26 30.02 1017 10 16 0.00 0.00
6:35 pm 18:35 Sunny 55 13 27 -3 33 33 ESE 15 24 30.02 1017 10 16 0.00 0.00
6:55 pm 18:55 Sunny 54 12 27 -3 35 35 ESE 16 26 30.03 1017 10 16 0.00 0.00
7:15 pm 19:15 Sunny 54 12 27 -3 35 35 ESE 12 19 30.03 1017 10 16 0.00 0.00
7:35 pm 19:35 Sunny 54 12 27 -3 35 35 E 14 22 30.04 1017 10 16 0.00 0.00
7:55 pm 19:55 Sunny 50 10 27 -3 40 40 E 10 17 30.06 1018 10 16 0.00 0.00
8:35 pm 20:35 Clear 48 9 27 -3 43 43 E 9 15 30.08 1019 10 16 0.00 0.00
8:55 pm 20:55 Clear 45 7 27 -3 49 49 E 9 15 30.11 1020 10 16 0.00 0.00
9:15 pm 21:15 Clear 43 6 25 -4 49 49 E 10 17 30.13 1020 10 16 0.00 0.00
9:35 pm 21:35 Clear 41 5 25 -4 53 53 E 10 17 30.15 1021 10 16 0.00 0.00
9:55 pm 21:55 Clear 41 5 23 -5 49 49 E 12 19 30.17 1022 10 16 0.00 0.00
10:15 pm 22:15 Clear 41 5 23 -5 49 49 E 12 19 30.18 1022 10 16 0.00 0.00
10:35 pm 22:35 Clear 41 5 21 -6 45 45 E 13 20 30.18 1022 10 16 0.00 0.00
10:55 pm 22:55 Clear 41 5 19 -7 42 42 E 14 22 30.18 1022 10 16 0.00 0.00
11:15 pm 23:15 Clear 39 4 19 -7 45 45 E 12 19 30.19 1022 10 16 0.00 0.00
11:35 pm 23:35 Clear 37 3 19 -7 48 48 E 14 22 30.20 1023 10 16 0.00 0.00
11:55 pm 23:55 Clear 37 3 18 -8 45 45 E 12 19 30.20 1023 10 16 0.00 0.00

Powered by AerisWeather